Voltar ao catálogo

COSMOS 970 DEB

AtivoLEO
NORAD 10535·DEBRIS·🇷🇺 Russia

Lançado Dec 21, 1977 de Baikonur Cosmodrome

Loading…

Próximas Passagens (próximas 24 horas)

TLE

AtualizadoSource: Space-Track

Época: Sep 14, 2026, 12:01 UTC

1 10535U 77121C   26257.50095959  .00000201  00000-0  27401-3 0  9996
2 10535  65.8532 338.8525 0116984   8.9532   3.4595 13.76404145435154

Acompanhe COSMOS 970 DEB em tempo real com AllMySat

Download on the App Store